User: anonymous   Login
Location: Tierra del Sol
(32.6128°N, 116.3319°W)
Time: 03:01:10
(UTC-08:00)
Language:

N. Korean satellite - Orbit

View from above orbital plane
View from above orbital plane
View from above satellite
View from above satellite

Ground track
Ground track

The orbit data is extracted from the following two-line orbital elements,

1 39026U 12072A   18017.12589059  .00001153  00000-0  46158-4 0  9996
2 39026  97.2147  32.6465 0040930 137.2427 223.2009 15.26284560282616
Epoch (UTC): 17 January 2018 03:01:16
Eccentricity: 0.0040930
inclination: 97.2147°
perigee height: 459 km
apogee height: 515 km
right ascension of ascending node: 32.6465°
argument of perigee: 137.2427°
revolutions per day: 15.26284560
mean anomaly at epoch: 223.2009°
orbit number at epoch: 28261

The dashed part of the orbit path shows where the satellite is in the earth's shadow,  

DLR